Theta_e
317 317 319 325 327 324 324 324 324 324 324 321 321 322 322 321 322 324 321 321 322 325 330 328 328 329 330 331 331 330 329 327 327 327 327 327 327 327 328 330 329 333 336 337 332 328 326 323 324
316 316 323 322 325 324 323 323 324 323 322 321 321 321 322 322 322 322 325 322 322 319 328 327 328 328 329 329 330 330 329 327 326 326 326 325 327 327 326 328 330 333 335 335 328 322 323 323 323
315 316 322 324 323 324 323 323 323 322 322 321 321 321 321 321 321 323 320 320 323 321 319 323 327 328 328 328 329 328 330 329 327 325 327 330 332 332 326 324 324 329 330 325 325 322 323 321 317
321 321 321 322 323 322 322 322 321 322 321 319 320 322 321 319 320 320 319 318 321 323 318 319 321 327 327 328 327 326 326 328 326 327 333 333 334 323 320 319 324 324 323 321 322 319 316 314 312
319 320 322 322 322 321 320 320 321 322 322 321 320 321 321 320 317 317 317 316 319 323 321 319 317 318 321 323 322 321 325 328 325 334 334 332 323 317 316 317 316 315 315 316 315 314 310 307 305
320 319 322 322 321 321 321 321 321 321 321 321 319 320 321 319 317 317 317 317 317 320 322 320 318 316 315 315 315 315 321 325 328 334 332 328 316 313 313 314 313 313 313 311 309 306 304 303 303
321 322 322 321 321 321 321 320 321 320 320 320 319 319 319 319 318 317 317 317 316 317 319 322 321 319 316 317 315 313 318 324 326 332 331 324 317 312 311 311 310 309 308 306 304 303 303 303 305
321 321 321 321 320 320 320 319 319 319 319 318 318 320 320 320 318 317 316 316 316 316 317 319 321 321 321 319 317 314 321 323 323 332 330 326 317 311 309 308 306 305 304 304 303 303 304 306 306
319 321 321 321 320 319 319 319 318 318 317 318 318 318 318 318 317 316 316 316 316 316 316 317 319 321 320 321 319 315 316 322 323 329 328 323 317 311 308 306 305 304 304 303 303 304 305 305 305
320 322 321 321 319 319 318 318 318 318 318 318 318 319 319 318 317 316 318 320 320 316 316 316 318 318 320 323 323 319 315 318 322 324 326 321 318 312 308 305 305 304 303 303 303 305 305 305 305
321 321 320 320 319 318 318 317 317 318 318 317 317 317 317 317 317 317 317 318 319 321 322 316 316 317 318 320 320 321 317 315 317 320 325 318 318 313 308 304 305 304 303 303 304 304 304 305 305
321 319 319 319 318 318 318 317 318 317 317 317 317 317 317 317 316 316 317 317 317 319 320 319 316 316 317 318 319 319 320 318 316 317 320 320 317 313 308 304 305 305 304 303 304 304 304 305 305
320 319 318 318 318 318 318 317 318 317 317 317 317 316 316 316 316 316 316 315 314 314 315 317 316 315 315 316 317 317 319 320 318 319 322 318 314 311 309 304 305 306 305 304 304 304 304 305 305
318 317 317 317 317 317 317 317 317 316 316 316 316 316 316 316 316 316 315 315 315 315 314 314 315 315 315 315 316 316 317 320 320 319 317 315 314 312 309 306 304 305 305 304 304 304 304 304 305
315 316 317 317 317 317 315 316 317 317 316 315 315 315 315 315 315 315 315 315 315 314 314 314 314 315 314 315 315 316 317 317 318 318 317 315 314 313 310 307 304 304 305 304 303 303 303 304 304
316 316 318 318 316 315 315 317 318 316 315 315 315 315 315 315 315 315 315 314 314 314 313 313 313 313 314 314 315 315 316 317 318 318 317 316 314 313 310 307 306 304 305 304 303 303 303 303 303
318 318 319 318 317 316 315 316 316 315 315 315 315 315 315 315 315 313 312 311 311 311 312 312 312 312 313 314 318 320 319 319 319 319 318 317 315 314 312 308 306 304 304 304 303 302 302 302 302
321 320 319 319 319 316 317 317 316 315 316 316 316 316 315 315 312 310 309 309 309 310 310 310 310 310 311 312 315 320 320 320 320 319 319 318 317 315 313 309 307 304 303 302 302 302 302 302 302
318 318 318 318 318 317 317 316 316 316 316 317 317 316 314 312 310 308 308 310 310 310 309 308 308 309 309 313 313 316 319 320 319 318 318 317 317 316 314 311 308 305 303 301 302 301 300 300 301
316 317 317 318 317 314 316 316 316 317 316 316 314 314 312 311 309 306 306 307 308 308 308 308 306 306 307 312 314 315 316 317 318 317 316 316 316 316 315 313 310 307 304 301 300 300 300 299 301
316 316 317 317 316 316 316 317 320 318 317 314 312 312 310 307 307 306 305 305 306 306 305 305 306 306 305 307 309 310 313 312 312 313 313 314 313 312 313 314 311 309 306 303 301 300 300 300 300
316 317 316 315 315 319 315 319 318 319 317 314 312 310 308 306 305 305 304 304 304 304 304 303 303 304 305 304 305 307 308 307 307 307 308 309 310 311 312 313 313 311 309 305 303 300 299 298 299
316 312 313 313 315 316 317 317 318 317 317 313 311 308 306 305 304 303 303 303 304 304 303 303 304 303 302 302 302 302 303 304 305 304 303 304 304 305 307 309 312 310 310 308 306 303 299 298 298
310 312 314 314 316 319 319 319 317 317 315 311 308 306 305 304 303 302 301 300 300 301 302 303 303 303 304 304 303 301 301 300 301 302 301 301 302 302 303 304 306 308 308 308 306 304 301 299 298
311 314 320 323 323 322 318 316 317 316 312 312 309 305 304 303 303 302 301 300 299 298 299 301 303 303 303 302 303 303 302 301 299 299 299 299 300 300 300 300 301 303 307 307 305 305 302 299 298
317 317 322 324 324 323 314 319 318 312 308 306 304 303 302 301 300 300 300 299 298 298 300 300 301 301 301 301 301 301 301 301 301 300 299 298 298 298 298 298 299 299 300 303 304 304 303 300 298
315 314 313 315 316 319 317 318 317 310 308 305 303 301 300 299 299 298 298 298 297 298 297 297 298 298 299 299 299 299 300 300 299 300 300 299 298 297 298 297 297 297 298 298 300 301 301 300 299
313 316 319 316 319 320 316 315 315 315 312 305 303 301 299 299 298 297 296 297 296 296 296 296 295 294 293 295 296 296 296 298 299 298 297 297 298 299 299 299 298 298 297 297 297 297 299 299 298
312 312 312 312 313 316 316 315 313 312 310 306 302 299 298 297 296 295 296 294 295 292 291 291 291 290 290 290 290 291 291 292 293 296 297 296 295 296 298 299 299 298 298 297 296 296 296 296 297
313 313 314 315 315 314 315 316 314 307 306 302 299 297 296 295 292 292 294 292 292 291 290 290 289 289 288 288 288 288 289 289 289 289 291 293 295 294 294 295 297 298 297 297 297 296 295 296 295
Wind_Speed
4 5 6 5 5 3 3 3 4 4 2 5 4 6 10 12 8 5 3 5 6 10 19 20 20 21 20 19 17 15 14 13 11 10 9 8 7 7 7 5 4 6 7 5 3 3 4 3 1
3 4 4 5 4 5 7 4 2 6 7 7 6 6 6 4 4 4 4 7 5 8 18 20 22 21 20 20 18 17 15 14 13 12 11 10 10 10 11 10 8 9 10 8 7 6 5 4 4
1 1 5 3 3 5 5 3 4 6 7 5 5 3 7 5 3 3 7 6 6 10 16 20 22 22 22 21 20 18 17 16 15 14 12 11 11 14 12 12 13 13 14 10 9 8 7 7 7
2 2 4 5 5 6 4 8 10 9 1 2 3 8 3 4 2 5 8 8 6 11 17 19 20 23 23 23 21 19 19 18 16 14 12 15 12 11 8 9 12 14 14 9 11 10 10 8 7
1 3 4 4 6 3 6 8 7 7 4 3 2 5 7 6 4 6 8 7 6 11 16 20 19 22 23 23 23 21 20 18 17 17 17 18 13 12 10 10 12 12 11 11 10 9 8 7 5
4 4 5 5 5 4 3 3 4 4 4 3 4 9 6 6 3 5 9 8 8 11 14 20 20 23 23 23 23 22 23 21 19 22 21 20 14 11 10 11 11 11 11 10 9 8 5 4 3
5 4 8 9 9 5 0 1 3 6 7 8 4 8 7 4 7 8 12 10 10 12 14 19 21 23 24 24 24 24 24 24 24 24 22 19 17 13 11 12 12 11 11 9 8 6 4 4 3
4 4 6 4 7 9 2 1 3 7 14 6 5 5 6 4 14 18 16 14 13 14 16 19 21 23 25 26 27 26 25 26 27 26 25 23 19 15 13 13 13 12 12 10 9 7 6 5 4
2 5 7 9 7 4 4 7 3 8 14 17 12 15 16 19 21 20 20 18 17 18 19 21 22 24 25 27 29 29 29 27 28 28 28 26 21 19 17 16 16 14 13 12 11 10 8 7 6
6 7 9 5 10 10 13 13 14 13 16 21 18 18 14 15 21 20 18 17 19 20 21 22 24 25 25 26 27 31 33 32 31 31 32 30 25 23 21 20 18 17 15 14 13 12 10 9 7
5 9 12 12 15 16 16 18 19 16 17 20 19 20 20 20 21 20 20 19 19 18 20 23 25 27 28 28 29 31 33 35 35 32 32 31 28 26 23 23 22 20 19 18 16 14 12 10 8
9 16 17 19 14 9 17 21 18 18 27 27 28 25 25 22 21 19 21 19 18 19 21 24 24 28 30 31 32 32 32 36 37 35 33 31 31 29 26 26 24 23 22 21 19 17 14 12 10
13 16 18 17 18 18 20 26 21 27 28 28 24 22 22 23 23 20 19 20 20 22 23 24 26 27 31 34 35 35 35 36 35 35 35 36 33 31 29 29 27 26 24 23 20 18 16 14 12
12 14 20 21 18 18 19 25 20 27 23 23 21 25 24 23 22 23 20 22 26 28 26 24 25 26 29 34 36 37 37 37 37 37 38 37 35 34 33 32 31 29 27 26 24 21 19 17 14
10 13 17 21 22 9 7 16 12 16 12 18 24 27 28 27 26 25 26 27 25 24 24 26 28 29 31 32 36 38 39 40 41 40 40 38 37 37 36 35 35 32 30 29 27 24 22 20 17
8 10 10 7 1 4 6 20 14 12 18 30 32 30 25 25 22 19 17 17 17 18 18 20 25 30 34 34 35 38 40 42 42 42 42 42 40 40 40 39 38 36 34 32 30 27 25 23 20
12 12 15 12 11 4 10 13 19 30 29 33 31 24 22 20 14 14 14 12 12 12 13 14 20 23 27 33 33 34 36 40 41 42 43 44 42 42 43 42 40 39 37 36 34 31 28 26 23
15 18 18 20 21 14 18 18 19 26 28 31 27 20 13 10 14 16 17 15 12 8 9 11 12 16 21 24 29 31 30 36 37 38 41 41 42 43 44 43 42 41 39 39 37 35 32 30 26
20 19 20 21 19 17 17 16 17 26 27 21 14 9 9 14 15 19 20 17 15 15 13 9 7 10 13 17 21 24 28 28 32 36 37 39 40 42 43 45 45 44 42 40 39 37 35 32 30
15 17 19 17 9 1 13 18 21 16 22 9 9 10 14 13 17 20 23 25 24 21 19 13 8 4 8 10 11 14 14 20 21 26 33 37 39 43 43 46 47 46 43 42 41 40 38 35 34
16 16 18 17 14 11 11 15 13 10 18 10 16 16 16 16 17 21 24 26 26 27 27 24 15 8 3 3 7 11 14 18 21 23 24 29 32 35 40 43 47 48 47 46 45 44 43 42 39
16 11 11 11 6 10 4 11 12 8 8 14 14 15 16 16 16 17 21 27 31 30 27 27 24 17 11 6 3 4 10 10 11 14 20 25 28 31 39 40 44 49 49 49 48 46 46 44 44
6 1 4 5 10 12 11 7 8 5 8 13 11 12 14 14 16 18 19 21 24 27 30 29 29 26 23 17 10 5 7 7 8 14 15 16 19 21 27 38 41 49 52 51 51 50 49 48 46
2 6 10 7 5 9 14 12 7 1 6 11 10 11 10 11 14 16 16 19 21 23 25 26 26 29 30 27 21 15 11 8 8 10 14 13 15 18 19 26 34 43 50 52 52 52 51 50 49
7 8 8 8 9 13 6 6 13 4 8 8 10 9 8 10 11 13 15 16 16 19 22 26 29 30 29 26 25 24 20 15 12 11 10 12 13 16 16 19 24 30 43 49 51 52 52 51 51
8 8 8 11 13 14 3 8 8 13 14 13 12 10 7 8 10 14 14 14 16 20 24 25 28 27 26 24 24 24 24 24 20 17 15 13 14 15 17 18 20 23 27 40 48 51 53 53 51
3 6 6 6 9 9 13 20 19 14 11 9 10 9 7 8 11 12 12 13 16 19 22 24 22 22 23 24 23 23 23 22 23 23 20 17 15 16 16 18 19 20 22 26 36 46 51 53 52
7 1 5 3 4 7 13 20 15 13 8 7 5 6 8 10 10 11 12 14 15 17 18 17 18 20 21 20 21 21 21 21 21 22 22 23 21 16 16 16 18 21 21 23 28 36 44 50 52
7 6 11 12 10 13 17 14 11 6 2 6 5 3 4 5 7 8 8 9 10 12 15 15 16 18 20 21 21 21 22 22 21 21 21 22 23 24 22 18 17 18 22 24 26 30 34 44 51
10 15 16 13 8 11 12 13 13 2 5 5 6 5 2 2 5 6 6 7 8 10 12 13 16 18 21 22 23 23 22 22 23 24 24 24 25 24 23 23 22 19 20 22 27 31 32 35 43
Wind_Direction
290 317 327 294 266 232 269 91 353 346 351 17 320 308 332 309 308 359 323 319 261 209 197 204 209 207 207 207 210 215 213 214 220 226 225 226 230 239 245 240 206 202 223 220 255 285 263 299 306
290 326 304 287 265 273 75 54 37 27 351 320 297 281 276 313 337 299 337 337 225 229 199 206 208 211 211 209 211 212 215 218 220 228 234 244 244 240 238 226 201 210 232 241 281 275 275 279 289
279 306 279 298 298 348 2 45 351 324 318 295 305 280 304 335 315 304 291 311 235 218 202 211 212 212 212 213 214 216 218 223 229 233 239 238 235 237 232 221 222 219 235 249 266 273 269 277 280
306 236 227 260 315 326 285 323 339 316 113 220 281 278 256 269 294 260 290 302 248 223 207 213 217 217 217 216 219 221 221 224 227 226 225 226 221 233 226 220 227 235 249 256 259 268 276 277 279
291 255 260 255 284 282 311 303 308 304 298 263 256 298 293 298 286 316 310 284 256 230 220 220 218 222 223 225 224 224 222 219 219 219 222 231 231 244 239 241 243 246 252 251 256 259 265 274 274
241 291 258 279 341 317 319 359 312 289 315 298 265 284 296 256 275 330 329 304 261 241 234 226 222 222 225 228 229 226 222 223 212 221 225 237 249 250 244 243 246 248 251 254 257 255 246 226 218
287 268 289 303 302 309 352 345 280 337 305 297 292 286 294 263 282 296 310 298 274 252 243 232 229 223 223 226 228 227 224 221 218 223 228 241 253 253 241 234 235 238 242 245 246 238 216 211 217
266 270 278 261 304 310 115 218 282 295 300 294 276 260 315 318 295 304 298 289 276 258 249 238 234 230 228 226 226 226 224 222 222 226 231 235 250 247 236 233 231 231 232 227 215 208 213 222 236
253 256 265 281 287 317 151 284 260 281 275 279 262 273 286 294 294 296 295 281 273 265 259 245 237 233 232 230 228 228 228 224 222 227 235 239 242 239 234 227 226 225 223 217 208 207 209 219 228
234 255 286 298 295 288 302 290 283 281 273 278 282 282 280 283 287 284 277 272 271 265 261 254 244 240 234 230 229 229 229 227 227 227 232 238 237 234 226 225 223 222 216 213 211 211 213 219 222
220 256 287 293 283 291 291 286 282 263 275 283 295 295 293 287 277 275 274 267 261 262 261 253 250 244 238 232 230 233 229 228 228 228 229 236 234 231 224 221 217 217 211 211 210 211 214 217 221
257 256 270 282 288 281 276 286 284 267 275 285 289 291 288 281 277 272 273 274 265 256 246 251 249 244 241 238 235 233 233 233 230 228 227 232 228 228 225 224 222 219 213 213 212 214 216 217 222
245 268 278 279 278 272 282 277 277 279 286 286 287 288 284 284 284 283 275 272 283 278 264 250 252 246 242 239 237 237 234 234 235 229 227 231 230 230 227 225 224 222 217 218 217 218 218 220 223
316 295 283 281 276 271 270 278 289 278 282 292 291 292 291 291 288 291 283 277 283 281 271 264 253 258 246 243 242 242 238 235 237 231 233 235 233 233 230 228 226 225 222 220 219 220 220 220 223
285 294 295 281 270 249 270 275 245 287 315 292 282 288 293 293 294 293 288 286 282 275 273 257 253 255 254 249 245 242 241 239 239 237 237 237 234 234 232 230 229 228 226 222 220 220 220 222 223
269 277 283 288 126 162 200 283 312 318 302 291 287 291 300 301 306 309 310 305 296 285 272 267 262 250 250 247 244 243 241 241 240 241 240 240 236 234 233 232 230 229 229 226 225 224 222 223 223
238 267 283 303 314 145 204 284 295 299 290 283 289 299 304 314 341 356 355 344 327 309 295 274 264 256 250 248 239 240 239 240 241 242 242 243 240 235 235 234 232 231 229 228 226 224 224 224 222
283 294 293 302 299 211 292 283 285 290 290 286 294 301 314 359 37 26 19 13 9 337 307 287 259 263 255 247 241 236 237 238 239 240 243 242 243 237 235 234 234 234 231 227 225 225 224 224 224
276 287 286 283 294 303 295 296 290 288 291 293 307 330 48 69 41 28 29 28 19 8 359 343 301 261 251 246 239 239 236 239 241 239 239 240 243 241 235 235 235 234 234 232 230 227 224 219 220
276 274 277 285 294 277 280 298 289 282 272 313 342 75 74 50 39 31 28 29 27 21 17 14 14 338 284 233 239 236 240 244 246 251 244 242 240 243 238 236 236 237 235 233 231 229 225 223 225
265 267 275 282 313 281 279 276 288 247 261 65 103 94 68 53 39 29 31 34 36 35 31 27 28 30 41 280 269 254 228 245 247 246 247 247 244 243 243 238 238 240 237 236 236 233 231 228 225
267 278 278 276 279 295 29 298 300 276 161 117 84 60 56 49 48 44 38 35 37 39 41 39 37 35 44 51 14 315 294 293 281 268 256 259 259 252 253 248 241 241 240 238 239 237 236 233 233
278 350 251 248 264 292 257 253 241 235 223 123 80 61 53 51 47 42 42 44 40 39 37 39 40 40 42 35 42 28 340 311 290 278 285 272 271 268 252 253 245 241 242 240 240 238 236 236 237
33 263 250 255 271 262 264 228 279 208 140 133 100 68 60 57 56 51 41 38 33 34 35 36 37 37 37 31 26 18 1 335 308 294 300 289 284 277 272 260 256 246 245 243 243 243 239 237 237
220 264 288 261 238 258 284 240 254 223 117 130 130 109 83 74 63 59 48 40 31 27 27 25 24 25 26 27 28 24 15 3 345 325 310 292 287 284 282 276 271 259 249 248 245 245 244 240 238
286 255 252 282 279 290 138 259 279 103 116 115 117 116 104 74 59 49 41 33 27 21 17 15 14 13 13 13 16 19 19 19 9 350 331 312 294 284 286 284 279 271 262 253 249 247 247 245 242
129 232 9 324 295 282 265 270 272 139 118 119 124 123 94 60 42 34 26 20 15 17 15 13 10 8 7 8 9 9 9 11 10 11 5 347 326 306 296 288 285 279 271 262 255 250 250 248 246
238 338 291 190 246 247 262 283 283 270 165 154 126 76 45 38 32 22 19 13 6 4 6 6 8 11 11 10 6 6 5 3 1 1 2 3 354 340 324 314 298 287 278 272 264 256 253 252 250
239 234 226 254 257 266 274 270 311 8 146 173 156 111 66 32 21 9 11 11 6 4 8 10 7 6 8 9 6 2 2 1 356 353 350 350 350 350 349 334 314 301 289 279 269 267 264 258 253
283 271 267 261 253 248 261 259 292 338 173 185 179 175 184 2 10 14 13 12 11 14 5 1 356 350 353 356 355 354 352 350 349 350 347 341 337 340 342 339 336 327 310 294 279 276 269 263 260